NOAA-16
1 26536U 00055A 11355.41723911 .00000008 00000-0 29115-4 0 5553
2 26536 099.1208 029.5738 0010067 224.0233 136.0127 14.12686968579795
NOAA-17
1 27453U 02032A 11355.46034938 .00000225 00000-0 11495-3 0 5358
2 27453 098.3585 026.3582 0011123 324.8036 035.2412 14.24371720493319
NOAA-18
1 28654U 05018A 11355.44859270 .00000079 00000-0 68413-4 0 109
2 28654 099.0224 307.2907 0013684 299.5922 060.3889 14.11576796339344
NOAA-19
1 33591U 09005A 11355.70009702 -.00000016 00000-0 15587-4 0 2008
2 33591 098.8470 292.8724 0014221 162.7835 197.3821 14.11265935147836
HUBBLE
1 20580U 90037B 11355.08397458 .00001881 00000-0 12752-3 0 9104
2 20580 028.4703 235.1646 0003202 306.8411 053.1934 15.02015669987776
ISS
1 25544U 98067A 11355.91136867 .00021672 00000-0 28116-3 0 6701
2 25544 051.6441 296.4760 0024445 190.7247 276.2995 15.58432251750217
CO-58
1 28895U 05043F 11354.31430120 .00000650 00000-0 14331-3 0 00539
2 28895 097.9392 223.2326 0017645 000.3419 359.7813 14.60398879327400
FALCON
1 30776U 07006E 11354.96636313 .00005472 00000-0 36832-3 0 02487
2 30776 035.4340 290.3659 0003051 293.1361 066.8993 15.06201105263207
MAST
1 31126U 07012K 11355.58319030 .00000727 00000-0 17341-3 0 3389
2 31126 097.8825 012.0934 0093553 307.9261 051.3497 14.53972922248317
CAPE1
1 31130U 07012P 11354.50126810 .00001052 00000-0 25054-3 0 03514
2 31130 097.8871 007.5975 0101614 323.2305 036.1958 14.52685504247683
COMPASS
1 32787U 08021E 11355.75062495 .00002853 00000-0 35456-3 0 1751
2 32787 097.8282 055.9080 0014407 286.2500 073.7133 14.83285100197352
AAUSAT2
1 32788U 08021F 11354.81105155 .00002770 00000-0 34234-3 0 1660
2 32788 097.8286 055.2801 0014056 291.6651 068.3071 14.83536305197232
DO-64
1 32789U 08021G 11354.73918536 .00004109 00000-0 49274-3 0 1812
2 32789 097.8369 056.6294 0014091 286.7139 073.2585 14.84532947197246
CO-66
1 32791U 08021J 11354.66550122 .00001780 00000-0 22610-3 0 01705
2 32791 097.8285 054.7087 0014758 289.3402 070.6248 14.82821053197139
RS-30
1 32953U 08025A 11355.68625006 .00000010 00000-0 00000 0 0 3629
2 32953 082.5024 046.1439 0018239 341.4856 018.5564 12.43018812162385
TACSAT-3
1 35001U 09028A 11354.80275968 .00071683 00000-0 71321-3 0 08055
2 35001 040.4510 110.8519 0005343 123.7179 236.4155 15.64695073146121
PHARMSAT
1 35002U 09028B 11354.70385857 .00044842 00000-0 53749-3 0 07436
2 35002 040.4671 112.2231 0010284 174.6551 185.4392 15.60025206146101
HAWKSAT1
1 35003U 09028C 11276.79285837 .02274821 58283-2 19360-2 0 8114
2 35003 040.4398 174.3672 0011414 274.3918 085.3844 16.13812532134570
CP6
1 35004U 09028D 11247.64656856 .16152067 73217-5 10011-2 0 7842
2 35004 040.4403 342.9642 0002956 038.0069 322.2231 16.41039951130139
METEOR-M
1 35865U 09049A 11355.76054749 -.00000005 00000-0 17409-4 0 9997
2 35865 098.6817 048.2087 0001850 195.5927 164.5200 14.21851593117241
RS-38
1 35869U 09049E 11355.80701128 .00000068 00000-0 50517-4 0 9889
2 35869 098.6785 048.2753 0004161 200.2005 159.8999 14.22045376117267
ARISSAT1
1 37772U 98067CK 11355.85930899 .00567239 15278-3 10765-2 0 4288
2 37772 051.6314 284.7136 0009670 157.7128 302.7514 16.00032166 21945
SRMSAT
1 37839U 11058B 11354.39435533 .00000619 00000-0 19019-3 0 00523
2 37839 019.9618 007.4203 0019502 044.5352 315.6550 14.12009553009804
JUGNU
1 37841U 11058D 11354.41704542 .00000264 00000-0 00000-0 0 00510
2 37841 019.9719 008.6329 0011802 014.6250 345.4559 14.10100854009793
RAX-2
1 37853U 11061D 11354.86581050 .00002759 00000-0 23202-3 0 00583
2 37853 101.7063 308.7379 0253178 141.5290 220.4273 14.78239286007895
AUBIESAT
1 37854U 11061E 11354.85859577 .00002961 00000-0 24467-3 0 00595
2 37854 101.7118 308.7729 0254947 141.0698 220.9175 14.78468453007872
HRBE
1 37855U 11061F 11354.85978120 .00002921 00000-0 24184-3 0 00628
2 37855 101.7087 308.7727 0255026 141.0441 220.9439 14.78415878007877
